[[{"header":{"parameterUnit":"m.s-1","parameterCategory":1,"la1":30.2991,"la2":30.254,"lo1":-89.0895,"lo2":-89.0444,"dy":0.0017,"dx":0.0017,"nx":28,"ny":28,"refTime":"2024-04-14T21:00:00:Z","depth":0,"parameterNumber":2,"parameterNumberName":"U-component_of_WINDS"},"data":[0,0,0,0,0,0,0,0,0,0,0,0,0,0,0,0,0,0,0,0,0,0,0,0,0,0,0,0,0,0,0,0,0,0,0,0,0,0,0,0,0,0,0,0,0,0,0,0,0,0,0,0,0,0,0,0,0,0,-0.4642,-0.4642,0,-0.4658,-0.4658,-0.4658,-0.4666,-0.4666,-0.4666,-0.4666,-0.4684,-0.4684,-0.4684,0,0,0,0,0,0,0,0,0,0,0,0,0,-0.4619,-0.4619,-0.4642,-0.4642,-0.4642,-0.4658,-0.4658,-0.4658,-0.4666,-0.4666,-0.4666,-0.4666,-0.4683,-0.4684,-0.4684,0,0,0,0,0,0,0,0,0,0,0,0,0,-0.4631,-0.4619,-0.4642,-0.4648,-0.4649,-0.4658,-0.4658,-0.4658,-0.4666,-0.4666,-0.4666,-0.4666,-0.4683,-0.4684,-0.4685,-0.4689,0,0,-0.4687,-0.4687,0,0,0,0,0,0,0,0,-0.4631,-0.4632,-0.4647,-0.4648,-0.4648,-0.466,-0.4656,-0.4669,-0.4666,-0.466,-0.4666,-0.4666,-0.4676,-0.4677,-0.468,-0.469,-0.4691,-0.4687,-0.4687,-0.4687,-0.4688,0,0,0,0,0,0,0,-0.463,-0.4631,-0.4648,-0.4647,-0.4648,-0.465,-0.4652,-0.4659,-0.4668,-0.466,-0.4661,-0.4662,-0.4676,-0.4679,-0.4681,-0.4691,-0.4687,-0.4687,-0.4688,-0.4688,-0.4705,-0.4705,0,0,0,0,0,0,-0.4628,-0.4631,-0.4648,-0.4649,-0.4639,-0.4651,-0.4653,-0.4656,-0.4667,-0.4669,-0.4662,-0.4663,-0.4678,-0.468,-0.4681,-0.4687,-0.4687,-0.4688,-0.4689,-0.4705,-0.4705,-0.4705,0,0,0,0,0,0,-0.4627,-0.4629,-0.4647,-0.464,-0.4642,-0.4651,-0.4655,-0.4657,-0.466,-0.4669,-0.4671,-0.4664,-0.4678,-0.468,-0.4687,-0.4688,-0.4688,-0.4689,-0.4705,-0.4705,-0.4705,-0.4699,0,0,0,0,0,0,-0.4626,-0.4629,-0.463,-0.464,-0.4643,-0.4652,-0.4655,-0.4657,-0.4661,-0.4661,-0.4671,-0.4673,-0.4678,-0.4686,-0.4688,-0.4689,-0.469,-0.4705,-0.4705,-0.4705,-0.4699,-0.4699,-0.4699,0,0,0,0,0,-0.4626,-0.4628,-0.463,-0.4632,-0.4645,-0.4652,-0.4654,-0.466,-0.4661,-0.4663,-0.4669,-0.4673,-0.4687,-0.4686,-0.4689,-0.469,-0.4705,-0.4705,-0.4705,-0.4699,-0.4699,-0.4699,0,0,0,0,0,0,-0.4619,-0.463,-0.4632,-0.4638,-0.4644,-0.4653,-0.4656,-0.4659,-0.4666,-0.4666,-0.4674,-0.4676,-0.4682,-0.4687,-0.4685,-0.4695,-0.4697,-0.4697,-0.4691,-0.4691,-0.4691,-0.469,-0.469,0,0,0,0,0,-0.4618,-0.4623,-0.4632,-0.4636,-0.4639,-0.4647,-0.4651,-0.4655,-0.4662,-0.4664,-0.4671,-0.4678,-0.4684,-0.4688,-0.4694,-0.47,-0.4702,-0.4702,-0.4702,-0.4701,-0.4702,-0.4705,-0.4705,-0.4705,-0.4705,-0.4705,0,0,-0.4617,-0.4623,-0.4626,-0.4635,-0.4641,-0.4646,-0.4649,-0.4655,-0.4659,-0.4665,-0.4672,-0.4677,-0.4685,-0.4691,-0.4694,-0.4695,-0.4702,-0.4701,-0.4701,-0.4702,-0.4705,-0.4705,-0.4705,-0.4705,-0.4705,-0.4705,0,0,-0.4617,-0.4622,-0.4626,-0.4631,-0.4639,-0.4644,-0.4645,-0.4654,-0.4657,-0.4664,-0.4669,-0.4674,-0.4685,-0.469,-0.4694,-0.4696,-0.47,-0.4698,-0.4697,-0.47,-0.47,-0.47,-0.4701,-0.4701,-0.4698,-0.4698,-0.4698,0,-0.4614,-0.4621,-0.4628,-0.4633,-0.4637,-0.4643,-0.4647,-0.4652,-0.4661,-0.4664,-0.4665,-0.4678,-0.4684,-0.4692,-0.4692,-0.4696,-0.4697,-0.4697,-0.4699,-0.4699,-0.47,-0.47,-0.4701,-0.4698,-0.4698,-0.4698,-0.4698,0,-0.4618,-0.4623,-0.4625,-0.4634,-0.4638,-0.4643,-0.465,-0.4654,-0.4658,-0.4663,-0.467,-0.4677,-0.4685,-0.4687,-0.4691,-0.4695,-0.4695,-0.4698,-0.47,-0.4699,-0.47,-0.47,-0.4698,-0.4698,-0.4698,-0.4698,0,0,-0.4614,-0.4626,-0.4627,-0.4631,-0.464,-0.4644,-0.4649,-0.4656,-0.4659,-0.4666,-0.467,-0.4679,-0.4681,-0.4686,-0.4691,-0.4694,-0.4695,-0.4696,-0.4696,-0.4695,-0.47,-0.4698,-0.4699,-0.4697,-0.4697,-0.4697,-0.4699,0,-0.4615,-0.4624,-0.463,-0.4636,-0.4641,-0.4647,-0.4651,-0.4658,-0.4662,-0.4668,-0.4673,-0.4679,-0.4682,-0.4685,-0.4688,-0.4694,-0.4696,-0.4694,-0.4702,-0.4702,-0.47,-0.4699,-0.4697,-0.4699,-0.47,-0.47,-0.47,0,-0.4618,-0.4624,-0.4631,-0.4639,-0.4641,-0.4645,-0.4652,-0.4657,-0.4664,-0.4668,-0.4673,-0.4678,-0.4683,-0.4685,-0.4693,-0.4691,-0.4695,-0.4698,-0.4699,-0.47,-0.4701,-0.47,-0.4699,-0.47,-0.4701,-0.47,-0.47,0,-0.4614,-0.4624,-0.463,-0.4633,-0.4643,-0.4645,-0.465,-0.4657,-0.4661,-0.4667,-0.467,-0.4677,-0.4681,-0.4686,-0.4693,-0.4693,-0.4701,-0.4702,-0.4704,-0.4704,-0.4705,-0.4705,-0.4705,-0.4707,-0.4707,-0.4707,-0.4707,0,-0.4615,-0.4619,-0.4628,-0.4632,-0.4636,-0.4643,-0.4648,-0.4653,-0.4659,-0.4664,-0.4669,-0.4673,-0.4682,-0.4687,-0.4692,-0.4698,-0.47,-0.4703,-0.4704,-0.4703,-0.4702,-0.4705,-0.4705,-0.4707,-0.4707,-0.4707,-0.4707,0,-0.4612,-0.4618,-0.4625,-0.4633,-0.4636,-0.4639,-0.4647,-0.465,-0.4655,-0.4661,-0.4663,-0.4671,-0.4678,-0.4685,-0.4694,-0.4697,-0.4703,-0.4705,-0.4701,-0.4702,-0.4703,-0.4702,-0.4705,-0.4705,-0.4707,-0.4707,-0.4707,0,-0.4612,-0.4616,-0.4625,-0.4628,-0.4632,-0.4637,-0.4641,-0.4648,-0.4652,-0.466,-0.4663,-0.467,-0.4676,-0.4687,-0.4693,-0.4701,-0.4703,-0.4703,-0.4704,-0.4702,-0.4703,-0.4702,-0.4703,-0.4703,-0.4703,-0.4703,-0.4703,0,-0.4612,-0.4615,-0.462,-0.4626,-0.4631,-0.4637,-0.4642,-0.4645,-0.4653,-0.4657,-0.4664,-0.4668,-0.4678,-0.4685,-0.4692,-0.4697,-0.4701,-0.4702,-0.4703,-0.4701,-0.4698,-0.47,-0.47,-0.4702,-0.4702,-0.4702,-0.4702,-0.4702,-0.4611,-0.4614,-0.462,-0.4626,-0.4631,-0.4636,-0.464,-0.4646,-0.4651,-0.4659,-0.4663,-0.4669,-0.4677,-0.4688,-0.4692,-0.4698,-0.4699,-0.47,-0.4701,-0.4701,-0.47,-0.4697,-0.47,-0.47,-0.47,-0.47,-0.47,0,-0.461,-0.4615,-0.462,-0.4628,-0.4633,-0.4636,-0.4642,-0.4646,-0.4652,-0.4658,-0.4664,-0.4671,-0.4678,-0.4686,-0.4693,-0.4696,-0.4698,-0.4698,-0.4697,-0.4699,-0.4699,-0.4697,-0.4696,-0.4696,-0.4696,-0.4696,-0.4696,-0.4696,-0.4611,-0.4616,-0.462,-0.4628,-0.4633,-0.4639,-0.4642,-0.4647,-0.4652,-0.4661,-0.4666,-0.4671,-0.4678,-0.4686,-0.4692,-0.4694,-0.4697,-0.4696,-0.4698,-0.4698,-0.4699,-0.4699,-0.4698,-0.4696,-0.4696,-0.4698,-0.4698,-0.4698]},{"header":{"parameterUnit":"m.s-1","parameterCategory":1,"la1":30.2991,"la2":30.254,"lo1":-89.0895,"lo2":-89.0444,"dy":0.0017,"dx":0.0017,"nx":28,"ny":28,"refTime":"2024-04-14T21:00:00:Z","depth":0,"parameterNumber":3,"parameterNumberName":"V-component_of_WINDS"},"data":[0,0,0,0,0,0,0,0,0,0,0,0,0,0,0,0,0,0,0,0,0,0,0,0,0,0,0,0,0,0,0,0,0,0,0,0,0,0,0,0,0,0,0,0,0,0,0,0,0,0,0,0,0,0,0,0,0,0,2.8883,2.8883,0,2.8936,2.8937,2.8937,2.8916,2.8915,2.8913,2.8912,2.8965,2.8967,2.897,0,0,0,0,0,0,0,0,0,0,0,0,0,2.876,2.8762,2.8883,2.8883,2.8884,2.8936,2.8937,2.8937,2.8916,2.8914,2.8913,2.8912,2.8964,2.8967,2.897,0,0,0,0,0,0,0,0,0,0,0,0,0,2.8813,2.8763,2.8882,2.888,2.888,2.8936,2.8937,2.8938,2.8916,2.8914,2.8913,2.8911,2.8963,2.8967,2.8971,2.9032,0,0,2.8982,2.8984,0,0,0,0,0,0,0,0,2.881,2.8818,2.8879,2.888,2.888,2.8917,2.8913,2.8969,2.8917,2.8902,2.8912,2.891,2.8951,2.8955,2.8969,2.9035,2.9037,2.8983,2.8985,2.8987,2.8988,0,0,0,0,0,0,0,2.8807,2.8815,2.8904,2.888,2.8881,2.8875,2.888,2.8923,2.8936,2.8904,2.8902,2.8909,2.895,2.8966,2.897,2.9038,2.8983,2.8986,2.8988,2.899,2.9155,2.9157,0,0,0,0,0,0,2.8803,2.8812,2.8902,2.8905,2.884,2.8879,2.8885,2.8907,2.8936,2.8938,2.891,2.8908,2.896,2.8966,2.8972,2.9046,2.8987,2.899,2.8993,2.9153,2.9155,2.9158,0,0,0,0,0,0,2.88,2.8811,2.89,2.8858,2.8869,2.8883,2.8908,2.8909,2.8925,2.8941,2.8943,2.8924,2.8959,2.8967,2.9017,2.9047,2.8992,2.8996,2.9151,2.9154,2.9157,2.9193,0,0,0,0,0,0,2.8797,2.881,2.8834,2.8859,2.8872,2.8945,2.891,2.8912,2.8932,2.8929,2.8954,2.8956,2.8958,2.9012,2.9021,2.9051,2.8999,2.9148,2.9152,2.9156,2.9189,2.9197,2.9204,0,0,0,0,0,2.8793,2.8842,2.8836,2.8847,2.8902,2.8947,2.8954,2.8955,2.8934,2.8958,2.8968,2.8956,2.9042,2.9017,2.9028,2.9059,2.9146,2.9151,2.9155,2.9186,2.9195,2.9203,0,0,0,0,0,0,2.882,2.8845,2.8839,2.8898,2.892,2.8943,2.8973,2.8965,2.8993,2.8989,2.8989,2.8995,2.9047,2.9058,2.9029,2.912,2.9091,2.9098,2.9111,2.912,2.9127,2.9123,2.9002,0,0,0,0,0,2.8833,2.8868,2.8888,2.8938,2.895,2.896,2.8979,2.8978,2.9001,2.901,2.9024,2.9047,2.9079,2.91,2.913,2.9191,2.9196,2.9218,2.9225,2.9231,2.9237,2.9269,2.9279,2.9173,2.9173,2.9173,0,0,2.886,2.8878,2.89,2.8944,2.8961,2.8997,2.8968,2.9006,2.9032,2.9016,2.9065,2.9076,2.91,2.9156,2.9181,2.9167,2.9267,2.9237,2.9241,2.9244,2.9275,2.9285,2.9294,2.9176,2.9176,2.9175,0,0,2.8928,2.8945,2.8989,2.9007,2.9033,2.904,2.905,2.9074,2.9081,2.913,2.9118,2.9149,2.9204,2.9222,2.9239,2.9312,2.9302,2.9322,2.936,2.9391,2.94,2.9407,2.9433,2.9442,2.9328,2.9328,2.9328,0,2.8958,2.9011,2.9012,2.9052,2.9071,2.9058,2.9102,2.9119,2.9154,2.9168,2.9151,2.9221,2.9236,2.9296,2.9314,2.9328,2.9339,2.9319,2.9398,2.9406,2.9413,2.9437,2.9447,2.9331,2.933,2.933,2.933,0,2.9046,2.9084,2.9115,2.915,2.9173,2.9215,2.9221,2.9244,2.9241,2.9248,2.9298,2.9317,2.935,2.9364,2.9362,2.9423,2.9414,2.9398,2.9369,2.9425,2.9448,2.9458,2.9334,2.9333,2.9332,2.9332,0,0,2.9133,2.9167,2.9179,2.9194,2.9223,2.9251,2.9292,2.9325,2.9345,2.9369,2.9403,2.945,2.9436,2.9454,2.9453,2.9481,2.9538,2.9462,2.9462,2.9475,2.9606,2.9617,2.9628,2.9531,2.9532,2.9534,2.9604,0,2.9202,2.9274,2.9275,2.9341,2.9375,2.9363,2.9398,2.9419,2.9427,2.9456,2.9465,2.9498,2.9477,2.9488,2.9515,2.9525,2.9564,2.952,2.9561,2.9563,2.9555,2.964,2.9653,2.9718,2.9613,2.9614,2.9615,0,2.9292,2.932,2.9389,2.9412,2.9426,2.9458,2.9489,2.9517,2.954,2.9544,2.9565,2.956,2.96,2.957,2.9626,2.9596,2.9613,2.962,2.9623,2.9626,2.9592,2.9646,2.9739,2.9748,2.963,2.9629,2.9628,0,2.9348,2.9402,2.945,2.9464,2.9492,2.9515,2.9527,2.9549,2.9569,2.9595,2.9608,2.9639,2.9656,2.968,2.9683,2.966,2.9738,2.9708,2.9742,2.9742,2.9759,2.9757,2.9855,2.977,2.977,2.977,2.977,0,2.9425,2.9467,2.9476,2.9505,2.9552,2.9554,2.96,2.9611,2.963,2.9661,2.9652,2.9681,2.9684,2.9714,2.9716,2.9761,2.9769,2.9773,2.9773,2.9773,2.9773,2.9784,2.978,2.9772,2.9772,2.9771,2.9771,0,2.9494,2.9502,2.9554,2.9576,2.9583,2.9616,2.9635,2.9663,2.967,2.971,2.9719,2.973,2.9765,2.977,2.9811,2.9812,2.9866,2.9862,2.9859,2.9858,2.9891,2.9888,2.9999,3.0014,2.992,2.992,2.9921,0,2.9543,2.9575,2.9601,2.9622,2.9636,2.9669,2.9689,2.9691,2.9713,2.9741,2.9766,2.98,2.9827,2.9882,2.9893,2.9924,2.992,2.9957,2.9925,2.9924,2.992,2.9918,2.9921,2.9963,2.9964,2.9965,2.9966,0,2.9628,2.963,2.966,2.9692,2.9716,2.9741,2.9764,2.9781,2.9786,2.9811,2.9846,2.9867,2.9909,2.9942,2.9973,2.9985,2.9976,2.9976,2.9985,2.9986,2.9983,2.9985,2.9875,2.9973,2.9973,2.9972,2.9972,2.9971,2.9688,2.9717,2.9739,2.9773,2.9791,2.9812,2.984,2.985,2.988,2.9914,2.9914,2.9953,2.9974,3.0014,3.0029,3.0059,3.0047,3.006,3.0064,3.0067,3.007,2.9978,3.0064,3.0064,3.0064,3.0064,3.0063,0,2.9773,2.9787,2.9818,2.9851,2.9877,2.9867,2.9892,2.9914,2.9949,2.997,2.9997,3.0037,3.007,3.0084,3.0115,3.0136,3.0133,3.0145,3.0143,3.0146,3.0079,3.0068,3.0147,3.0147,3.0147,3.0147,3.0147,3.0147,2.982,2.9867,2.9871,2.9927,2.994,2.9979,2.9994,3.0014,3.0031,3.0076,3.0103,3.0112,3.013,3.0163,3.0192,3.0195,3.0207,3.022,3.0222,3.0159,3.015,3.0142,3.0132,3.0223,3.0223,3.0286,3.0286,3.0287]}]]